owner,sensor,date,latitude,longitude,vertical_datum,direction_of_sea_water_velocity,sea_water_speed,upward_sea_water_velocity,qcFlag 
TABS,ioos:station:wmo:42046:1,2008-02-01T00:00:00Z,27.8903,-94.0367,2.0,133.1522888,7.67609927,-99999.0,'11133222,11111222,99999999' 
TABS,ioos:station:wmo:42046:1,2008-02-01T00:30:00Z,27.8903,-94.0367,2.0,139.5520475,8.909365858,-99999.0,'11133222,11111222,99999999' 
TABS,ioos:station:wmo:42046:1,2008-02-01T01:00:00Z,27.8903,-94.0367,2.0,110.5922832,7.392320339,-99999.0,'11133222,11111222,99999999' 
TABS,ioos:station:wmo:42046:1,2008-02-01T01:30:00Z,27.8903,-94.0367,2.0,175.6145347,3.269571837,-99999.0,'11133222,11111222,99999999' 
TABS,ioos:station:wmo:42046:1,2008-02-01T02:00:00Z,27.8903,-94.0367,2.0,116.2068959,14.31111456,-99999.0,'11111222,11111222,99999999' 
TABS,ioos:station:wmo:42046:1,2008-02-01T02:30:00Z,27.8903,-94.0367,2.0,116.3643548,8.939854585,-99999.0,'11133222,11111222,99999999' 
TABS,ioos:station:wmo:42046:1,2008-02-01T03:00:00Z,27.8903,-94.0367,2.0,155.6309729,10.73654041,-99999.0,'11111222,11111222,99999999' 
TABS,ioos:station:wmo:42046:1,2008-02-01T03:30:00Z,27.8903,-94.0367,2.0,122.9194213,15.87972922,-99999.0,'11111222,11111222,99999999' 
TABS,ioos:station:wmo:42046:1,2008-02-01T04:00:00Z,27.8903,-94.0367,2.0,139.8829252,14.37107164,-99999.0,'11111222,11111222,99999999' 
TABS,ioos:station:wmo:42046:1,2008-02-01T04:30:00Z,27.8903,-94.0367,2.0,129.2080538,12.40232639,-99999.0,'11111222,11111222,99999999' 
TABS,ioos:station:wmo:42046:1,2008-02-01T05:00:00Z,27.8903,-94.0367,2.0,126.9956148,14.57403513,-99999.0,'11111222,11111222,99999999' 
TABS,ioos:station:wmo:42046:1,2008-02-01T05:30:00Z,27.8903,-94.0367,2.0,139.9396003,19.87280051,-99999.0,'11111222,11111222,99999999' 
TABS,ioos:station:wmo:42046:1,2008-02-01T06:00:00Z,27.8903,-94.0367,2.0,141.1302663,14.50083101,-99999.0,'11111222,11111222,99999999' 
TABS,ioos:station:wmo:42046:1,2008-02-01T06:30:00Z,27.8903,-94.0367,2.0,139.0339573,11.76003827,-99999.0,'11111222,11111222,99999999' 
TABS,ioos:station:wmo:42046:1,2008-02-01T07:00:00Z,27.8903,-94.0367,2.0,137.506686,16.32857924,-99999.0,'11111222,11111222,99999999' 
TABS,ioos:station:wmo:42046:1,2008-02-01T07:30:00Z,27.8903,-94.0367,2.0,142.6743563,16.09650894,-99999.0,'11111222,11111222,99999999' 
TABS,ioos:station:wmo:42046:1,2008-02-01T08:00:00Z,27.8903,-94.0367,2.0,150.3484453,9.884341152,-99999.0,'11133222,11111222,99999999' 
TABS,ioos:station:wmo:42046:1,2008-02-01T08:30:00Z,27.8903,-94.0367,2.0,136.5728353,6.182442883,-99999.0,'11133222,11111222,99999999' 
TABS,ioos:station:wmo:42046:1,2008-02-01T09:00:00Z,27.8903,-94.0367,2.0,158.5186642,7.973882367,-99999.0,'11133222,11111222,99999999' 
TABS,ioos:station:wmo:42046:1,2008-02-01T09:30:00Z,27.8903,-94.0367,2.0,138.3539154,11.48186831,-99999.0,'11111222,11111222,99999999' 
TABS,ioos:station:wmo:42046:1,2008-02-01T10:00:00Z,27.8903,-94.0367,2.0,146.9948248,10.20721314,-99999.0,'11111222,11111222,99999999' 
TABS,ioos:station:wmo:42046:1,2008-02-01T10:30:00Z,27.8903,-94.0367,2.0,176.1028367,3.678505131,-99999.0,'11133222,11111222,99999999' 
TABS,ioos:station:wmo:42046:1,2008-02-01T11:00:00Z,27.8903,-94.0367,2.0,176.6613268,2.404079866,-99999.0,'11133222,11111222,99999999' 
TABS,ioos:station:wmo:42046:1,2008-02-01T11:30:00Z,27.8903,-94.0367,2.0,119.7448117,4.272996607,-99999.0,'11133222,11111222,99999999' 
TABS,ioos:station:wmo:42046:1,2008-02-01T12:00:00Z,27.8903,-94.0367,2.0,138.2460209,4.745229183,-99999.0,'11133222,11111222,99999999' 
TABS,ioos:station:wmo:42046:1,2008-02-01T12:30:00Z,27.8903,-94.0367,2.0,132.9689853,1.995294464,-99999.0,'11133222,11111222,99999999' 
TABS,ioos:station:wmo:42046:1,2008-02-01T13:00:00Z,27.8903,-94.0367,2.0,111.3637571,6.807789656,-99999.0,'11133222,11111222,99999999' 
TABS,ioos:station:wmo:42046:1,2008-02-01T13:30:00Z,27.8903,-94.0367,2.0,137.5691298,2.208393081,-99999.0,'11133222,11111222,99999999' 
TABS,ioos:station:wmo:42046:1,2008-02-01T14:00:00Z,27.8903,-94.0367,2.0,153.5233563,2.893475419,-99999.0,'11133222,11111222,99999999' 
TABS,ioos:station:wmo:42046:1,2008-02-01T14:30:00Z,27.8903,-94.0367,2.0,82.40537439,2.269911893,-99999.0,'11133222,11111222,99999999' 
TABS,ioos:station:wmo:42046:1,2008-02-01T15:00:00Z,27.8903,-94.0367,2.0,319.7512336,2.646601594,-99999.0,'11133222,11111222,99999999' 
TABS,ioos:station:wmo:42046:1,2008-02-01T15:30:00Z,27.8903,-94.0367,2.0,63.62317331,2.723545483,-99999.0,'11133222,11111222,99999999' 
TABS,ioos:station:wmo:42046:1,2008-02-01T16:00:00Z,27.8903,-94.0367,2.0,60.74316543,2.475823095,-99999.0,'11133222,11111222,99999999' 
TABS,ioos:station:wmo:42046:1,2008-02-01T16:30:00Z,27.8903,-94.0367,2.0,58.50526949,1.665322792,-99999.0,'11133222,11111222,99999999' 
TABS,ioos:station:wmo:42046:1,2008-02-01T17:00:00Z,27.8903,-94.0367,2.0,49.52486312,0.985951317,-99999.0,'11133222,11111222,99999999' 
TABS,ioos:station:wmo:42046:1,2008-02-01T17:30:00Z,27.8903,-94.0367,2.0,82.23485214,1.776288265,-99999.0,'11133222,11111222,99999999' 
TABS,ioos:station:wmo:42046:1,2008-02-01T18:00:00Z,27.8903,-94.0367,2.0,198.232238,0.894930165,-99999.0,'11133222,11111222,99999999' 
TABS,ioos:station:wmo:42046:1,2008-02-01T18:30:00Z,27.8903,-94.0367,2.0,172.9833042,1.309809146,-99999.0,'11133222,11111222,99999999' 
TABS,ioos:station:wmo:42046:1,2008-02-01T19:00:00Z,27.8903,-94.0367,2.0,168.5083773,1.857229119,-99999.0,'11133222,11111222,99999999' 
TABS,ioos:station:wmo:42046:1,2008-02-01T19:30:00Z,27.8903,-94.0367,2.0,179.0502249,1.810248602,-99999.0,'11133222,11111222,99999999' 
TABS,ioos:station:wmo:42046:1,2008-02-01T20:00:00Z,27.8903,-94.0367,2.0,234.6211877,3.765275554,-99999.0,'11133222,11111222,99999999' 
TABS,ioos:station:wmo:42046:1,2008-02-01T20:30:00Z,27.8903,-94.0367,2.0,235.2623672,5.159573626,-99999.0,'11133222,11111222,99999999' 
TABS,ioos:station:wmo:42046:1,2008-02-01T21:00:00Z,27.8903,-94.0367,2.0,220.5904317,5.886408073,-99999.0,'11133222,11111222,99999999' 
TABS,ioos:station:wmo:42046:1,2008-02-01T21:30:00Z,27.8903,-94.0367,2.0,243.43459,5.433645185,-99999.0,'11133222,11111222,99999999' 
TABS,ioos:station:wmo:42046:1,2008-02-01T22:00:00Z,27.8903,-94.0367,2.0,260.2233744,6.301507756,-99999.0,'11133222,11111222,99999999' 
TABS,ioos:station:wmo:42046:1,2008-02-01T22:30:00Z,27.8903,-94.0367,2.0,265.1052153,6.915215109,-99999.0,'11133222,11111222,99999999' 
TABS,ioos:station:wmo:42046:1,2008-02-01T23:00:00Z,27.8903,-94.0367,2.0,273.8018527,6.033274401,-99999.0,'11133222,11111222,99999999' 
TABS,ioos:station:wmo:42046:1,2008-02-01T23:30:00Z,27.8903,-94.0367,2.0,279.8876331,6.872066647,-99999.0,'11133222,11111222,99999999' 
TABS,ioos:station:wmo:42046:1,2008-02-02T00:00:00Z,27.8903,-94.0367,2.0,283.2759504,7.490160212,-99999.0,'11133222,11111222,99999999' 
TABS,ioos:station:wmo:42046:1,2008-02-02T00:30:00Z,27.8903,-94.0367,2.0,4.179551142,20.03327232,-99999.0,'11111222,11111222,99999999' 
TABS,ioos:station:wmo:42046:1,2008-02-02T01:00:00Z,27.8903,-94.0367,2.0,33.17451675,17.87316424,-99999.0,'11111222,11111222,99999999' 
TABS,ioos:station:wmo:42046:1,2008-02-02T01:30:00Z,27.8903,-94.0367,2.0,31.51479728,18.1934109,-99999.0,'11111222,11111222,99999999' 
TABS,ioos:station:wmo:42046:1,2008-02-02T02:00:00Z,27.8903,-94.0367,2.0,18.3439848,13.91720159,-99999.0,'11111222,11111222,99999999' 
TABS,ioos:station:wmo:42046:1,2008-02-02T02:30:00Z,27.8903,-94.0367,2.0,27.20483725,14.02101993,-99999.0,'11111222,11111222,99999999' 
TABS,ioos:station:wmo:42046:1,2008-02-02T03:00:00Z,27.8903,-94.0367,2.0,39.22840856,13.85173274,-99999.0,'11111222,11111222,99999999' 
TABS,ioos:station:wmo:42046:1,2008-02-02T03:30:00Z,27.8903,-94.0367,2.0,34.7779605,15.3402249,-99999.0,'11111222,11111222,99999999' 
TABS,ioos:station:wmo:42046:1,2008-02-02T04:00:00Z,27.8903,-94.0367,2.0,42.62178082,15.50606655,-99999.0,'11111222,11111222,99999999' 
TABS,ioos:station:wmo:42046:1,2008-02-02T04:30:00Z,27.8903,-94.0367,2.0,43.84886444,14.78151548,-99999.0,'11111222,11111222,99999999' 
TABS,ioos:station:wmo:42046:1,2008-02-02T05:00:00Z,27.8903,-94.0367,2.0,45.69418152,12.8420014,-99999.0,'11111222,11111222,99999999' 
TABS,ioos:station:wmo:42046:1,2008-02-02T05:30:00Z,27.8903,-94.0367,2.0,31.78489748,11.01133961,-99999.0,'11111222,11111222,99999999' 
TABS,ioos:station:wmo:42046:1,2008-02-02T06:00:00Z,27.8903,-94.0367,2.0,39.34786387,11.05633755,-99999.0,'11111222,11111222,99999999' 
TABS,ioos:station:wmo:42046:1,2008-02-02T06:30:00Z,27.8903,-94.0367,2.0,35.73990535,9.22779497,-99999.0,'11133222,11111222,99999999' 
TABS,ioos:station:wmo:42046:1,2008-02-02T07:00:00Z,27.8903,-94.0367,2.0,24.81385949,11.41375048,-99999.0,'11111222,11111222,99999999' 
TABS,ioos:station:wmo:42046:1,2008-02-02T07:30:00Z,27.8903,-94.0367,2.0,14.15019954,8.54939764,-99999.0,'11133222,11111222,99999999' 
TABS,ioos:station:wmo:42046:1,2008-02-02T08:00:00Z,27.8903,-94.0367,2.0,14.62105026,8.08170774,-99999.0,'11133222,11111222,99999999' 
TABS,ioos:station:wmo:42046:1,2008-02-02T08:30:00Z,27.8903,-94.0367,2.0,32.29074681,8.517188503,-99999.0,'11133222,11111222,99999999' 
TABS,ioos:station:wmo:42046:1,2008-02-02T09:00:00Z,27.8903,-94.0367,2.0,20.13478495,10.66156649,-99999.0,'11111222,11111222,99999999' 
TABS,ioos:station:wmo:42046:1,2008-02-02T09:30:00Z,27.8903,-94.0367,2.0,17.40801344,9.526310933,-99999.0,'11133222,11111222,99999999' 
TABS,ioos:station:wmo:42046:1,2008-02-02T10:00:00Z,27.8903,-94.0367,2.0,25.97250708,12.9698882,-99999.0,'11111222,11111222,99999999' 
TABS,ioos:station:wmo:42046:1,2008-02-02T10:30:00Z,27.8903,-94.0367,2.0,358.8935004,8.801641892,-99999.0,'11133222,11111222,99999999' 
TABS,ioos:station:wmo:42046:1,2008-02-02T11:00:00Z,27.8903,-94.0367,2.0,26.06008726,10.65304182,-99999.0,'11111222,11111222,99999999' 
TABS,ioos:station:wmo:42046:1,2008-02-02T11:30:00Z,27.8903,-94.0367,2.0,35.91132068,10.8775227,-99999.0,'11111222,11111222,99999999' 
TABS,ioos:station:wmo:42046:1,2008-02-02T12:00:00Z,27.8903,-94.0367,2.0,37.84686254,10.67555151,-99999.0,'11111222,11111222,99999999' 
TABS,ioos:station:wmo:42046:1,2008-02-02T12:30:00Z,27.8903,-94.0367,2.0,24.73445515,11.75877545,-99999.0,'11111222,11111222,99999999' 
TABS,ioos:station:wmo:42046:1,2008-02-02T13:00:00Z,27.8903,-94.0367,2.0,21.27909202,8.349209543,-99999.0,'11133222,11111222,99999999' 
TABS,ioos:station:wmo:42046:1,2008-02-02T13:30:00Z,27.8903,-94.0367,2.0,31.69261233,12.81026541,-99999.0,'11111222,11111222,99999999' 
TABS,ioos:station:wmo:42046:1,2008-02-02T14:00:00Z,27.8903,-94.0367,2.0,28.19356693,13.37708862,-99999.0,'11111222,11111222,99999999' 
TABS,ioos:station:wmo:42046:1,2008-02-02T14:30:00Z,27.8903,-94.0367,2.0,29.18521284,10.66377513,-99999.0,'11111222,11111222,99999999' 
TABS,ioos:station:wmo:42046:1,2008-02-02T15:00:00Z,27.8903,-94.0367,2.0,34.06784865,11.7820881,-99999.0,'11111222,11111222,99999999' 
TABS,ioos:station:wmo:42046:1,2008-02-02T15:30:00Z,27.8903,-94.0367,2.0,33.66390474,12.08691855,-99999.0,'11111222,11111222,99999999' 
TABS,ioos:station:wmo:42046:1,2008-02-02T16:00:00Z,27.8903,-94.0367,2.0,36.54637191,12.74620336,-99999.0,'11111222,11111222,99999999' 
TABS,ioos:station:wmo:42046:1,2008-02-02T16:30:00Z,27.8903,-94.0367,2.0,33.37258379,11.50743238,-99999.0,'11111222,11111222,99999999' 
TABS,ioos:station:wmo:42046:1,2008-02-02T17:00:00Z,27.8903,-94.0367,2.0,20.40584542,8.919736543,-99999.0,'11133222,11111222,99999999' 
TABS,ioos:station:wmo:42046:1,2008-02-02T17:30:00Z,27.8903,-94.0367,2.0,35.01449938,8.400404752,-99999.0,'11133222,11111222,99999999' 
TABS,ioos:station:wmo:42046:1,2008-02-02T18:00:00Z,27.8903,-94.0367,2.0,22.49229032,8.626175282,-99999.0,'11133222,11111222,99999999' 
TABS,ioos:station:wmo:42046:1,2008-02-02T18:30:00Z,27.8903,-94.0367,2.0,33.3458033,10.15119697,-99999.0,'11111222,11111222,99999999' 
TABS,ioos:station:wmo:42046:1,2008-02-02T19:00:00Z,27.8903,-94.0367,2.0,44.31966637,8.93138847,-99999.0,'11133222,11111222,99999999' 
TABS,ioos:station:wmo:42046:1,2008-02-02T19:30:00Z,27.8903,-94.0367,2.0,38.82994456,5.789386841,-99999.0,'11133222,11111222,99999999' 
TABS,ioos:station:wmo:42046:1,2008-02-02T20:00:00Z,27.8903,-94.0367,2.0,35.47417869,4.187242529,-99999.0,'11133222,11111222,99999999' 
TABS,ioos:station:wmo:42046:1,2008-02-02T20:30:00Z,27.8903,-94.0367,2.0,40.50966381,2.709464892,-99999.0,'11133222,11111222,99999999' 
TABS,ioos:station:wmo:42046:1,2008-02-02T21:00:00Z,27.8903,-94.0367,2.0,41.62085752,3.718776681,-99999.0,'11133222,11111222,99999999' 
TABS,ioos:station:wmo:42046:1,2008-02-02T21:30:00Z,27.8903,-94.0367,2.0,26.56519952,0.111803399,-99999.0,'11133222,11111222,99999999' 
TABS,ioos:station:wmo:42046:1,2008-02-02T22:00:00Z,27.8903,-94.0367,2.0,90.61938825,1.850108105,-99999.0,'11133222,11111222,99999999' 
TABS,ioos:station:wmo:42046:1,2008-02-02T22:30:00Z,27.8903,-94.0367,2.0,357.8856395,3.25221463,-99999.0,'11133222,11111222,99999999' 
TABS,ioos:station:wmo:42046:1,2008-02-02T23:00:00Z,27.8903,-94.0367,2.0,358.6416751,2.530711362,-99999.0,'11133222,11111222,99999999' 
TABS,ioos:station:wmo:42046:1,2008-02-02T23:30:00Z,27.8903,-94.0367,2.0,5.85621035,3.528413241,-99999.0,'11133222,11111222,99999999' 
TABS,ioos:station:wmo:42046:1,2008-02-03T00:00:00Z,27.8903,-94.0367,2.0,336.999537,2.661597265,-99999.0,'11133222,11111222,99999999' 
TABS,ioos:station:wmo:42046:1,2008-02-03T00:30:00Z,27.8903,-94.0367,2.0,333.3724661,4.083062576,-99999.0,'11133222,11111222,99999999' 
TABS,ioos:station:wmo:42046:1,2008-02-03T01:00:00Z,27.8903,-94.0367,2.0,339.8824565,5.814774286,-99999.0,'11133222,11111222,99999999' 
TABS,ioos:station:wmo:42046:1,2008-02-03T01:30:00Z,27.8903,-94.0367,2.0,309.6629282,4.10487515,-99999.0,'11133222,11111222,99999999' 
TABS,ioos:station:wmo:42046:1,2008-02-03T02:00:00Z,27.8903,-94.0367,2.0,3.500171413,3.276110499,-99999.0,'11133222,11111222,99999999' 
TABS,ioos:station:wmo:42046:1,2008-02-03T02:30:00Z,27.8903,-94.0367,2.0,342.9700935,4.643619278,-99999.0,'11133222,11111222,99999999' 
TABS,ioos:station:wmo:42046:1,2008-02-03T03:00:00Z,27.8903,-94.0367,2.0,0.000210459,1.48,-99999.0,'11133222,11111222,99999999' 
TABS,ioos:station:wmo:42046:1,2008-02-03T03:30:00Z,27.8903,-94.0367,2.0,318.5277755,2.068671071,-99999.0,'11133222,11111222,99999999' 
TABS,ioos:station:wmo:42046:1,2008-02-03T04:00:00Z,27.8903,-94.0367,2.0,289.0025917,1.597028491,-99999.0,'11133222,11111222,99999999' 
TABS,ioos:station:wmo:42046:1,2008-02-03T04:30:00Z,27.8903,-94.0367,2.0,315.5601902,2.170921463,-99999.0,'11133222,11111222,99999999' 
TABS,ioos:station:wmo:42046:1,2008-02-03T05:00:00Z,27.8903,-94.0367,2.0,347.8814785,1.667153262,-99999.0,'11133222,11111222,99999999' 
TABS,ioos:station:wmo:42046:1,2008-02-03T05:30:00Z,27.8903,-94.0367,2.0,335.4892481,2.121155346,-99999.0,'11133222,11111222,99999999' 
TABS,ioos:station:wmo:42046:1,2008-02-03T06:00:00Z,27.8903,-94.0367,2.0,69.30459766,1.443121616,-99999.0,'11133222,11111222,99999999' 
TABS,ioos:station:wmo:42046:1,2008-02-03T06:30:00Z,27.8903,-94.0367,2.0,37.25541279,0.892020179,-99999.0,'11133222,11111222,99999999' 
TABS,ioos:station:wmo:42046:1,2008-02-03T07:00:00Z,27.8903,-94.0367,2.0,115.6409459,0.277308492,-99999.0,'11133222,11111222,99999999' 
TABS,ioos:station:wmo:42046:1,2008-02-03T07:30:00Z,27.8903,-94.0367,2.0,63.86906056,1.771016657,-99999.0,'11133222,11111222,99999999' 
TABS,ioos:station:wmo:42046:1,2008-02-03T08:00:00Z,27.8903,-94.0367,2.0,335.7114651,2.139369066,-99999.0,'11133222,11111222,99999999' 
TABS,ioos:station:wmo:42046:1,2008-02-03T08:30:00Z,27.8903,-94.0367,2.0,163.9540298,2.351616465,-99999.0,'11133222,11111222,99999999' 
TABS,ioos:station:wmo:42046:1,2008-02-03T09:00:00Z,27.8903,-94.0367,2.0,141.2771786,1.422743828,-99999.0,'11133222,11111222,99999999' 
TABS,ioos:station:wmo:42046:1,2008-02-03T09:30:00Z,27.8903,-94.0367,2.0,100.0945991,2.681510768,-99999.0,'11133222,11111222,99999999' 
TABS,ioos:station:wmo:42046:1,2008-02-03T10:00:00Z,27.8903,-94.0367,2.0,246.3702566,1.397139936,-99999.0,'11133222,11111222,99999999' 
TABS,ioos:station:wmo:42046:1,2008-02-03T10:30:00Z,27.8903,-94.0367,2.0,213.4948959,2.446242016,-99999.0,'11133222,11111222,99999999' 
TABS,ioos:station:wmo:42046:1,2008-02-03T11:00:00Z,27.8903,-94.0367,2.0,87.63863086,0.970824392,-99999.0,'11133222,11111222,99999999' 
TABS,ioos:station:wmo:42046:1,2008-02-03T11:30:00Z,27.8903,-94.0367,2.0,113.1985363,1.827785545,-99999.0,'11133222,11111222,99999999' 
TABS,ioos:station:wmo:42046:1,2008-02-03T12:00:00Z,27.8903,-94.0367,2.0,36.76201891,2.12200377,-99999.0,'11133222,11111222,99999999' 
TABS,ioos:station:wmo:42046:1,2008-02-03T12:30:00Z,27.8903,-94.0367,2.0,152.6605821,1.654841382,-99999.0,'11133222,11111222,99999999' 
TABS,ioos:station:wmo:42046:1,2008-02-03T13:00:00Z,27.8903,-94.0367,2.0,73.82628211,3.446403923,-99999.0,'11133222,11111222,99999999' 
TABS,ioos:station:wmo:42046:1,2008-02-03T13:30:00Z,27.8903,-94.0367,2.0,85.13549694,2.358495283,-99999.0,'11133222,11111222,99999999' 
TABS,ioos:station:wmo:42046:1,2008-02-03T14:00:00Z,27.8903,-94.0367,2.0,34.60279602,3.1344537,-99999.0,'11133222,11111222,99999999' 
TABS,ioos:station:wmo:42046:1,2008-02-03T14:30:00Z,27.8903,-94.0367,2.0,93.24524732,1.943116054,-99999.0,'11133222,11111222,99999999' 
TABS,ioos:station:wmo:42046:1,2008-02-03T15:00:00Z,27.8903,-94.0367,2.0,72.89731102,2.720294102,-99999.0,'11133222,11111222,99999999' 
TABS,ioos:station:wmo:42046:1,2008-02-03T15:30:00Z,27.8903,-94.0367,2.0,51.6638423,3.595177325,-99999.0,'11133222,11111222,99999999' 
TABS,ioos:station:wmo:42046:1,2008-02-03T16:00:00Z,27.8903,-94.0367,2.0,66.37836512,4.267575424,-99999.0,'11133222,11111222,99999999' 
TABS,ioos:station:wmo:42046:1,2008-02-03T16:30:00Z,27.8903,-94.0367,2.0,42.16600084,3.575262228,-99999.0,'11133222,11111222,99999999' 
TABS,ioos:station:wmo:42046:1,2008-02-03T17:00:00Z,27.8903,-94.0367,2.0,96.97865098,4.8559757,-99999.0,'11133222,11111222,99999999' 
TABS,ioos:station:wmo:42046:1,2008-02-03T17:30:00Z,27.8903,-94.0367,2.0,60.53644092,1.768756625,-99999.0,'11133222,11111222,99999999' 
TABS,ioos:station:wmo:42046:1,2008-02-03T18:00:00Z,27.8903,-94.0367,2.0,97.24916535,5.151174623,-99999.0,'11133222,11111222,99999999' 
TABS,ioos:station:wmo:42046:1,2008-02-03T18:30:00Z,27.8903,-94.0367,2.0,105.9180359,5.760902707,-99999.0,'11133222,11111222,99999999' 
TABS,ioos:station:wmo:42046:1,2008-02-03T19:00:00Z,27.8903,-94.0367,2.0,97.0130396,5.077991729,-99999.0,'11133222,11111222,99999999' 
TABS,ioos:station:wmo:42046:1,2008-02-03T19:30:00Z,27.8903,-94.0367,2.0,142.6959285,7.656219694,-99999.0,'11133222,11111222,99999999' 
TABS,ioos:station:wmo:42046:1,2008-02-03T20:00:00Z,27.8903,-94.0367,2.0,155.2974171,10.45690681,-99999.0,'11111222,11111222,99999999' 
TABS,ioos:station:wmo:42046:1,2008-02-03T20:30:00Z,27.8903,-94.0367,2.0,155.8443344,10.85005069,-99999.0,'11111222,11111222,99999999' 
TABS,ioos:station:wmo:42046:1,2008-02-03T21:00:00Z,27.8903,-94.0367,2.0,163.5178409,9.093668127,-99999.0,'11133222,11111222,99999999' 
TABS,ioos:station:wmo:42046:1,2008-02-03T21:30:00Z,27.8903,-94.0367,2.0,148.5409702,8.33514247,-99999.0,'11133222,11111222,99999999' 
TABS,ioos:station:wmo:42046:1,2008-02-03T22:00:00Z,27.8903,-94.0367,2.0,117.8079669,7.009486429,-99999.0,'11133222,11111222,99999999' 
TABS,ioos:station:wmo:42046:1,2008-02-03T22:30:00Z,27.8903,-94.0367,2.0,150.8772602,4.910824778,-99999.0,'11133222,11111222,99999999' 
TABS,ioos:station:wmo:42046:1,2008-02-03T23:00:00Z,27.8903,-94.0367,2.0,151.6260654,6.375970514,-99999.0,'11133222,11111222,99999999' 
TABS,ioos:station:wmo:42046:1,2008-02-03T23:30:00Z,27.8903,-94.0367,2.0,163.3918466,9.62137724,-99999.0,'11133222,11111222,99999999' 
TABS,ioos:station:wmo:42046:1,2008-02-04T00:00:00Z,27.8903,-94.0367,2.0,174.6417275,7.924626174,-99999.0,'11133222,11111222,99999999' 
TABS,ioos:station:wmo:42046:1,2008-02-04T00:30:00Z,27.8903,-94.0367,2.0,188.2093642,9.174012208,-99999.0,'11133222,11111222,99999999' 
TABS,ioos:station:wmo:42046:1,2008-02-04T01:00:00Z,27.8903,-94.0367,2.0,174.5386722,9.141493313,-99999.0,'11133222,11111222,99999999' 
TABS,ioos:station:wmo:42046:1,2008-02-04T01:30:00Z,27.8903,-94.0367,2.0,179.9997895,10.09,-99999.0,'11111222,11111222,99999999' 
TABS,ioos:station:wmo:42046:1,2008-02-04T02:00:00Z,27.8903,-94.0367,2.0,182.2356376,7.946049333,-99999.0,'11133222,11111222,99999999' 
TABS,ioos:station:wmo:42046:1,2008-02-04T02:30:00Z,27.8903,-94.0367,2.0,203.9409546,8.206028272,-99999.0,'11133222,11111222,99999999' 
TABS,ioos:station:wmo:42046:1,2008-02-04T03:00:00Z,27.8903,-94.0367,2.0,220.3378221,4.959082576,-99999.0,'11133222,11111222,99999999' 
TABS,ioos:station:wmo:42046:1,2008-02-04T03:30:00Z,27.8903,-94.0367,2.0,198.0944327,6.922347868,-99999.0,'11133222,11111222,99999999' 
TABS,ioos:station:wmo:42046:1,2008-02-04T04:00:00Z,27.8903,-94.0367,2.0,190.5880251,5.605443783,-99999.0,'11133222,11111222,99999999' 
TABS,ioos:station:wmo:42046:1,2008-02-04T04:30:00Z,27.8903,-94.0367,2.0,230.1402138,5.445410912,-99999.0,'11133222,11111222,99999999' 
TABS,ioos:station:wmo:42046:1,2008-02-04T05:00:00Z,27.8903,-94.0367,2.0,199.3537979,8.871330227,-99999.0,'11133222,11111222,99999999' 
TABS,ioos:station:wmo:42046:1,2008-02-04T05:30:00Z,27.8903,-94.0367,2.0,229.56955,3.993707551,-99999.0,'11133222,11111222,99999999' 
TABS,ioos:station:wmo:42046:1,2008-02-04T06:00:00Z,27.8903,-94.0367,2.0,201.1636479,6.509024504,-99999.0,'11133222,11111222,99999999' 
TABS,ioos:station:wmo:42046:1,2008-02-04T06:30:00Z,27.8903,-94.0367,2.0,237.0878145,4.288228072,-99999.0,'11133222,11111222,99999999' 
TABS,ioos:station:wmo:42046:1,2008-02-04T07:00:00Z,27.8903,-94.0367,2.0,205.1189215,3.722002149,-99999.0,'11133222,11111222,99999999' 
TABS,ioos:station:wmo:42046:1,2008-02-04T07:30:00Z,27.8903,-94.0367,2.0,182.9796131,3.65494186,-99999.0,'11133222,11111222,99999999' 
TABS,ioos:station:wmo:42046:1,2008-02-04T08:00:00Z,27.8903,-94.0367,2.0,191.4173266,3.131980204,-99999.0,'11133222,11111222,99999999' 
TABS,ioos:station:wmo:42046:1,2008-02-04T08:30:00Z,27.8903,-94.0367,2.0,172.837083,3.7694164,-99999.0,'11133222,11111222,99999999' 
TABS,ioos:station:wmo:42046:1,2008-02-04T09:00:00Z,27.8903,-94.0367,2.0,161.6773016,4.835131849,-99999.0,'11133222,11111222,99999999' 
TABS,ioos:station:wmo:42046:1,2008-02-04T09:30:00Z,27.8903,-94.0367,2.0,210.7575233,2.385560731,-99999.0,'11133222,11111222,99999999' 
TABS,ioos:station:wmo:42046:1,2008-02-04T10:00:00Z,27.8903,-94.0367,2.0,193.1337811,0.616116872,-99999.0,'11133222,11111222,99999999' 
TABS,ioos:station:wmo:42046:1,2008-02-04T10:30:00Z,27.8903,-94.0367,2.0,121.7235288,1.293213053,-99999.0,'11133222,11111222,99999999' 
TABS,ioos:station:wmo:42046:1,2008-02-04T11:00:00Z,27.8903,-94.0367,2.0,20.70438567,2.715363696,-99999.0,'11133222,11111222,99999999' 
TABS,ioos:station:wmo:42046:1,2008-02-04T11:30:00Z,27.8903,-94.0367,2.0,22.74573192,3.15539221,-99999.0,'11133222,11111222,99999999' 
TABS,ioos:station:wmo:42046:1,2008-02-04T12:00:00Z,27.8903,-94.0367,2.0,23.03773971,3.270856157,-99999.0,'11133222,11111222,99999999' 
TABS,ioos:station:wmo:42046:1,2008-02-04T12:30:00Z,27.8903,-94.0367,2.0,10.41273129,7.137541594,-99999.0,'11133222,11111222,99999999' 
TABS,ioos:station:wmo:42046:1,2008-02-04T13:00:00Z,27.8903,-94.0367,2.0,9.05362795,5.528878729,-99999.0,'11133222,11111222,99999999' 
TABS,ioos:station:wmo:42046:1,2008-02-04T13:30:00Z,27.8903,-94.0367,2.0,20.74532643,8.864744779,-99999.0,'11133222,11111222,99999999' 
TABS,ioos:station:wmo:42046:1,2008-02-04T14:00:00Z,27.8903,-94.0367,2.0,20.47143687,7.119620776,-99999.0,'11133222,11111222,99999999' 
TABS,ioos:station:wmo:42046:1,2008-02-04T14:30:00Z,27.8903,-94.0367,2.0,0.198464496,5.780034602,-99999.0,'11133222,11111222,99999999' 
TABS,ioos:station:wmo:42046:1,2008-02-04T15:00:00Z,27.8903,-94.0367,2.0,32.74671485,6.063695243,-99999.0,'11133222,11111222,99999999' 
TABS,ioos:station:wmo:42046:1,2008-02-04T15:30:00Z,27.8903,-94.0367,2.0,13.07127259,11.23099283,-99999.0,'11111222,11111222,99999999' 
TABS,ioos:station:wmo:42046:1,2008-02-04T16:00:00Z,27.8903,-94.0367,2.0,12.15414306,8.786956242,-99999.0,'11133222,11111222,99999999' 